Tracking 28052 objects as of 23-Sep-2023
HD Live streaming from Space Station
objects crossing your sky now

COSMOS 1249 COOLANT

Track COSMOS 1249 COOLANT now!
10-day predictions


NORAD ID: 27569
Int'l Code: 1981-021R
Perigee: 885.9 km
Apogee: 973.7 km
Inclination: 65.0 °
Period: 103.5 minutes
Semi major axis: 7300 km
RCS: 0.0062 m2 (small)
Launch date: March 5, 1981
Source: Commonwealth of Independent States (former USSR) (CIS)
Launch site: TYURATAM MISSILE AND SPACE COMPLEX (TTMTR)

Note: This is SATELLITE DEBRIS
Your satellite tracking list
Your tracking list is empty




NASA's NSSDC Master Catalog

Two Line Element Set (TLE):
1 27569U 81021R   23263.78660817  .00000321  00000-0  31914-3 0  9997
2 27569  64.9622  35.4810 0060152 231.3556 128.2115 13.91710321514840
Source of the keplerian elements: AFSPC